[[{"header":{"parameterUnit":"m.s-1","parameterCategory":1,"la1":30.2991,"la2":30.254,"lo1":-89.0895,"lo2":-89.0444,"dy":0.0017,"dx":0.0017,"nx":28,"ny":28,"refTime":"2025-04-21T09:00:00:Z","depth":0,"parameterNumber":2,"parameterNumberName":"U-component_of_WINDS"},"data":[0,0,0,0,0,0,0,0,0,0,0,0,0,0,0,0,0,0,0,0,0,0,0,0,0,0,0,0,0,0,0,0,0,0,0,0,0,0,0,0,0,0,0,0,0,0,0,0,0,0,0,0,0,0,0,0,0,0,-0.8573,-0.8573,0,-0.8556,-0.8556,-0.8556,-0.8546,-0.8546,-0.8546,-0.8546,-0.8529,-0.8529,-0.8528,0,0,0,0,0,0,0,0,0,0,0,0,0,-0.8598,-0.8598,-0.8573,-0.8573,-0.8573,-0.8556,-0.8556,-0.8556,-0.8546,-0.8546,-0.8546,-0.8546,-0.8529,-0.8529,-0.8528,0,0,0,0,0,0,0,0,0,0,0,0,0,-0.8585,-0.8598,-0.8573,-0.8566,-0.8565,-0.8556,-0.8556,-0.8556,-0.8546,-0.8546,-0.8546,-0.8546,-0.8529,-0.8529,-0.8528,-0.8525,0,0,-0.8526,-0.8526,0,0,0,0,0,0,0,0,-0.8586,-0.8584,-0.8567,-0.8567,-0.8566,-0.8553,-0.8559,-0.8545,-0.8546,-0.8553,-0.8546,-0.8546,-0.8537,-0.8536,-0.8533,-0.8524,-0.8524,-0.8526,-0.8526,-0.8525,-0.8525,0,0,0,0,0,0,0,-0.8587,-0.8585,-0.8567,-0.8567,-0.8566,-0.8564,-0.8562,-0.8556,-0.8546,-0.8553,-0.8552,-0.855,-0.8537,-0.8533,-0.8532,-0.8523,-0.8526,-0.8525,-0.8525,-0.8525,-0.8513,-0.8513,0,0,0,0,0,0,-0.8589,-0.8586,-0.8567,-0.8566,-0.8576,-0.8564,-0.8561,-0.8557,-0.8546,-0.8544,-0.855,-0.855,-0.8535,-0.8533,-0.8532,-0.8528,-0.8525,-0.8525,-0.8524,-0.8512,-0.8513,-0.8513,0,0,0,0,0,0,-0.8589,-0.8587,-0.8568,-0.8576,-0.8573,-0.8563,-0.8559,-0.8557,-0.8554,-0.8544,-0.8542,-0.8549,-0.8534,-0.8533,-0.8527,-0.8527,-0.8524,-0.8524,-0.8512,-0.8512,-0.8513,-0.852,0,0,0,0,0,0,-0.859,-0.8587,-0.8586,-0.8576,-0.8573,-0.8563,-0.8559,-0.8557,-0.8553,-0.8552,-0.8542,-0.854,-0.8534,-0.8528,-0.8526,-0.8526,-0.8523,-0.8512,-0.8512,-0.8513,-0.852,-0.852,-0.8521,0,0,0,0,0,-0.8591,-0.8588,-0.8586,-0.8584,-0.857,-0.8563,-0.8561,-0.8554,-0.8553,-0.8551,-0.8545,-0.8541,-0.8528,-0.8528,-0.8526,-0.8525,-0.8512,-0.8512,-0.8513,-0.852,-0.852,-0.8521,0,0,0,0,0,0,-0.8599,-0.8587,-0.8584,-0.8578,-0.8572,-0.8561,-0.8559,-0.8555,-0.8549,-0.8549,-0.8541,-0.8538,-0.8534,-0.8529,-0.8529,-0.8522,-0.8519,-0.8519,-0.8525,-0.8526,-0.8527,-0.8528,-0.8523,0,0,0,0,0,-0.86,-0.8595,-0.8585,-0.858,-0.8577,-0.8569,-0.8566,-0.8561,-0.8554,-0.8551,-0.8545,-0.8538,-0.8533,-0.8529,-0.8524,-0.8519,-0.8517,-0.8518,-0.8519,-0.8519,-0.8519,-0.8517,-0.8518,-0.8513,-0.8513,-0.8513,0,0,-0.8602,-0.8595,-0.8592,-0.8582,-0.8576,-0.8572,-0.8567,-0.8562,-0.8558,-0.855,-0.8545,-0.854,-0.8532,-0.8528,-0.8525,-0.8523,-0.852,-0.852,-0.852,-0.852,-0.8517,-0.8518,-0.8518,-0.8513,-0.8513,-0.8513,0,0,-0.8603,-0.8597,-0.8593,-0.8588,-0.858,-0.8574,-0.8574,-0.8564,-0.8561,-0.8555,-0.855,-0.8545,-0.8536,-0.8531,-0.8527,-0.8528,-0.8524,-0.8526,-0.8529,-0.8528,-0.8528,-0.8528,-0.8529,-0.8529,-0.8526,-0.8526,-0.8526,0,-0.8606,-0.8598,-0.8592,-0.8587,-0.8583,-0.8576,-0.8573,-0.8568,-0.8559,-0.8556,-0.8554,-0.8543,-0.8537,-0.8532,-0.8532,-0.8529,-0.8528,-0.8527,-0.8529,-0.8529,-0.8529,-0.853,-0.853,-0.8527,-0.8527,-0.8527,-0.8527,0,-0.8603,-0.8598,-0.8596,-0.8588,-0.8584,-0.8579,-0.8572,-0.8569,-0.8565,-0.856,-0.8555,-0.8548,-0.8541,-0.854,-0.8535,-0.8534,-0.8533,-0.853,-0.8527,-0.853,-0.853,-0.853,-0.8527,-0.8527,-0.8527,-0.8527,0,0,-0.8608,-0.8596,-0.8596,-0.8592,-0.8583,-0.8579,-0.8576,-0.8569,-0.8567,-0.8561,-0.8558,-0.855,-0.8548,-0.8544,-0.8539,-0.8538,-0.8539,-0.8535,-0.8535,-0.8536,-0.8538,-0.854,-0.854,-0.8537,-0.8537,-0.8537,-0.8538,0,-0.8608,-0.86,-0.8595,-0.8589,-0.8585,-0.8579,-0.8576,-0.857,-0.8566,-0.8562,-0.8557,-0.8552,-0.8549,-0.8546,-0.8545,-0.8539,-0.8539,-0.8539,-0.8534,-0.8534,-0.8536,-0.854,-0.8542,-0.8544,-0.8538,-0.8538,-0.8538,0,-0.8607,-0.8601,-0.8596,-0.8588,-0.8586,-0.8583,-0.8578,-0.8574,-0.8568,-0.8565,-0.8561,-0.8556,-0.8552,-0.855,-0.8545,-0.8545,-0.8542,-0.854,-0.854,-0.8539,-0.8536,-0.854,-0.8545,-0.8545,-0.8538,-0.8538,-0.8538,0,-0.8611,-0.8602,-0.8598,-0.8595,-0.8586,-0.8585,-0.8581,-0.8575,-0.8572,-0.8567,-0.8565,-0.856,-0.8557,-0.8553,-0.8547,-0.8546,-0.8543,-0.854,-0.8541,-0.8541,-0.854,-0.854,-0.8545,-0.8538,-0.8538,-0.8538,-0.8538,0,-0.8611,-0.8608,-0.86,-0.8597,-0.8594,-0.8588,-0.8585,-0.8581,-0.8576,-0.8572,-0.8567,-0.8564,-0.8557,-0.8554,-0.8549,-0.8546,-0.8545,-0.8542,-0.8541,-0.8543,-0.8543,-0.8541,-0.8541,-0.8538,-0.8538,-0.8538,-0.8538,0,-0.8615,-0.861,-0.8605,-0.8597,-0.8595,-0.8593,-0.8587,-0.8585,-0.858,-0.8576,-0.8575,-0.8568,-0.8564,-0.8558,-0.8552,-0.8549,-0.8547,-0.8545,-0.8549,-0.8548,-0.8549,-0.8549,-0.8552,-0.8553,-0.8546,-0.8546,-0.8546,0,-0.8616,-0.8613,-0.8606,-0.8604,-0.86,-0.8596,-0.8593,-0.8588,-0.8585,-0.8578,-0.8577,-0.8572,-0.8568,-0.8562,-0.8556,-0.8552,-0.855,-0.8551,-0.8549,-0.8551,-0.855,-0.8551,-0.8551,-0.8552,-0.8552,-0.8552,-0.8552,0,-0.8618,-0.8615,-0.8611,-0.8607,-0.8603,-0.8599,-0.8595,-0.8593,-0.8587,-0.8584,-0.8579,-0.8576,-0.857,-0.8566,-0.8561,-0.8558,-0.8554,-0.8553,-0.8553,-0.8555,-0.8557,-0.8556,-0.855,-0.8553,-0.8553,-0.8553,-0.8553,-0.8553,-0.862,-0.8618,-0.8613,-0.8609,-0.8605,-0.8601,-0.8599,-0.8595,-0.8591,-0.8586,-0.8583,-0.8579,-0.8574,-0.8567,-0.8564,-0.8561,-0.8559,-0.8559,-0.8559,-0.8559,-0.856,-0.8558,-0.856,-0.856,-0.856,-0.856,-0.856,0,-0.8622,-0.8619,-0.8615,-0.8609,-0.8607,-0.8604,-0.8599,-0.8597,-0.8593,-0.8589,-0.8586,-0.8581,-0.8577,-0.8572,-0.8568,-0.8567,-0.8565,-0.8566,-0.8566,-0.8565,-0.8561,-0.8562,-0.8567,-0.8567,-0.8567,-0.8567,-0.8567,-0.8567,-0.8623,-0.8619,-0.8617,-0.8612,-0.8608,-0.8605,-0.8602,-0.8599,-0.8596,-0.8591,-0.8588,-0.8585,-0.858,-0.8576,-0.8573,-0.8571,-0.857,-0.8571,-0.857,-0.8566,-0.8565,-0.8565,-0.8565,-0.8571,-0.8571,-0.8574,-0.8574,-0.8574]},{"header":{"parameterUnit":"m.s-1","parameterCategory":1,"la1":30.2991,"la2":30.254,"lo1":-89.0895,"lo2":-89.0444,"dy":0.0017,"dx":0.0017,"nx":28,"ny":28,"refTime":"2025-04-21T09:00:00:Z","depth":0,"parameterNumber":3,"parameterNumberName":"V-component_of_WINDS"},"data":[0,0,0,0,0,0,0,0,0,0,0,0,0,0,0,0,0,0,0,0,0,0,0,0,0,0,0,0,0,0,0,0,0,0,0,0,0,0,0,0,0,0,0,0,0,0,0,0,0,0,0,0,0,0,0,0,0,0,3.7264,3.7265,0,3.7367,3.7368,3.7369,3.735,3.7348,3.7346,3.7344,3.745,3.7455,3.7459,0,0,0,0,0,0,0,0,0,0,0,0,0,3.705,3.7054,3.7263,3.7265,3.7266,3.7367,3.7368,3.737,3.735,3.7348,3.7345,3.7343,3.7449,3.7454,3.746,0,0,0,0,0,0,0,0,0,0,0,0,0,3.7147,3.7055,3.7263,3.7268,3.727,3.7366,3.7368,3.737,3.735,3.7348,3.7345,3.7342,3.7447,3.7454,3.7461,3.7559,0,0,3.7481,3.7484,0,0,0,0,0,0,0,0,3.7141,3.7155,3.7266,3.7268,3.727,3.7342,3.7332,3.7433,3.7351,3.732,3.7344,3.7341,3.7417,3.7426,3.7451,3.7564,3.7568,3.7482,3.7486,3.7489,3.7491,0,0,0,0,0,0,0,3.7135,3.715,3.7304,3.7268,3.727,3.7266,3.7277,3.7351,3.7383,3.7322,3.7321,3.7334,3.7417,3.7445,3.7454,3.757,3.7482,3.7488,3.7492,3.7495,3.7769,3.7772,0,0,0,0,0,0,3.7126,3.7145,3.7301,3.7307,3.7198,3.7272,3.7284,3.7322,3.7382,3.7388,3.7336,3.7332,3.7435,3.7446,3.7458,3.7577,3.7489,3.7496,3.7499,3.7765,3.7769,3.7773,0,0,0,0,0,0,3.7122,3.714,3.7297,3.7226,3.7245,3.7279,3.7322,3.7326,3.7353,3.7392,3.7398,3.7358,3.7433,3.7448,3.7534,3.758,3.7499,3.7505,3.7762,3.7767,3.7771,3.7816,0,0,0,0,0,0,3.7116,3.7139,3.7176,3.7227,3.7249,3.7371,3.7324,3.733,3.7365,3.7361,3.7415,3.7421,3.7432,3.7524,3.7541,3.7588,3.751,3.7758,3.7764,3.7769,3.781,3.7822,3.7831,0,0,0,0,0,3.7108,3.7184,3.7178,3.7197,3.7297,3.7374,3.7387,3.7398,3.7369,3.7407,3.7432,3.7419,3.7572,3.7533,3.7552,3.7602,3.7755,3.7762,3.7769,3.7806,3.7819,3.7831,0,0,0,0,0,0,3.7138,3.7191,3.7185,3.728,3.7322,3.737,3.7419,3.7412,3.7464,3.7458,3.747,3.7482,3.757,3.7594,3.7549,3.77,3.766,3.7671,3.7681,3.7694,3.7704,3.7697,3.7516,0,0,0,0,0,3.7156,3.7214,3.7257,3.7337,3.7359,3.7385,3.7419,3.7424,3.7469,3.7487,3.7518,3.7563,3.7621,3.7659,3.7715,3.7814,3.7826,3.7858,3.7868,3.7877,3.7886,3.7941,3.7957,3.7796,3.7796,3.7796,0,0,3.7193,3.7229,3.7265,3.7344,3.7378,3.7438,3.74,3.7466,3.7511,3.7497,3.758,3.7605,3.7655,3.7748,3.7791,3.7772,3.7933,3.7886,3.7892,3.7897,3.795,3.7965,3.7979,3.7801,3.78,3.7799,0,0,3.7291,3.7324,3.7395,3.7429,3.7481,3.7498,3.7515,3.7565,3.7581,3.7665,3.7656,3.771,3.781,3.7846,3.7878,3.7991,3.7982,3.8009,3.8063,3.8117,3.813,3.8141,3.8182,3.8196,3.8019,3.8019,3.8019,0,3.7331,3.7421,3.7432,3.7498,3.7534,3.7524,3.7596,3.7629,3.7697,3.7721,3.7699,3.7825,3.7858,3.796,3.7988,3.8013,3.8034,3.8003,3.8127,3.8138,3.8149,3.8188,3.8204,3.8022,3.8021,3.8021,3.8021,0,3.7467,3.753,3.7581,3.7647,3.7688,3.7756,3.7778,3.7818,3.782,3.784,3.7926,3.7965,3.8029,3.8054,3.8056,3.8157,3.8143,3.8124,3.8083,3.8167,3.8204,3.8219,3.8026,3.8025,3.8024,3.8023,0,0,3.7587,3.7658,3.7676,3.7706,3.7763,3.7812,3.7881,3.7944,3.7979,3.8026,3.8084,3.8169,3.8152,3.8188,3.8194,3.8242,3.833,3.8216,3.8218,3.8236,3.8444,3.8459,3.8476,3.8324,3.8327,3.8329,3.844,0,3.7691,3.7812,3.7824,3.7932,3.7991,3.7984,3.8044,3.8086,3.8106,3.816,3.8182,3.8243,3.8215,3.8237,3.8283,3.8309,3.8372,3.8302,3.8379,3.8381,3.8366,3.8495,3.851,3.8613,3.8455,3.8457,3.8459,0,3.7828,3.7879,3.7994,3.8043,3.8068,3.8122,3.8181,3.8232,3.828,3.8291,3.8332,3.8333,3.8404,3.8361,3.846,3.8412,3.8445,3.8463,3.8467,3.8474,3.8425,3.8506,3.8646,3.8661,3.8482,3.848,3.8478,0,3.7904,3.8002,3.8083,3.8109,3.8169,3.8207,3.8234,3.8279,3.8316,3.8368,3.8392,3.8451,3.8484,3.853,3.8547,3.8514,3.8646,3.8604,3.8658,3.8658,3.8686,3.8684,3.8833,3.8707,3.8707,3.8706,3.8706,0,3.8018,3.8089,3.8118,3.8168,3.8247,3.8261,3.8339,3.8364,3.8404,3.8459,3.8457,3.8509,3.8528,3.8583,3.8597,3.8677,3.8692,3.8704,3.8707,3.8704,3.8703,3.8726,3.8719,3.8711,3.871,3.8709,3.8708,0,3.8116,3.8139,3.8227,3.8277,3.8291,3.8347,3.839,3.8439,3.8459,3.8529,3.8546,3.8578,3.8644,3.8665,3.8744,3.8753,3.8847,3.8844,3.8831,3.8832,3.8885,3.888,3.9054,3.9078,3.8936,3.8937,3.8938,0,3.8188,3.8242,3.8298,3.8335,3.8363,3.8423,3.8461,3.8477,3.8517,3.8576,3.8617,3.8682,3.8735,3.8839,3.887,3.893,3.8929,3.8985,3.8938,3.8934,3.893,3.8927,3.8932,3.8994,3.8996,3.8997,3.8998,0,3.8313,3.8322,3.8377,3.8436,3.8482,3.853,3.8576,3.8606,3.8629,3.8674,3.8741,3.8781,3.8862,3.8927,3.8989,3.9017,3.9012,3.9013,3.9029,3.9027,3.9017,3.9024,3.8856,3.9009,3.9008,3.9007,3.9006,3.9006,3.8401,3.8449,3.8496,3.8557,3.8594,3.8637,3.8686,3.8712,3.8768,3.8835,3.8841,3.8913,3.8961,3.9043,3.9075,3.9132,3.9116,3.9139,3.9144,3.915,3.9154,3.9008,3.9143,3.9143,3.9143,3.9142,3.9142,0,3.8526,3.8556,3.8613,3.8677,3.8726,3.8717,3.8768,3.8809,3.8873,3.8917,3.8969,3.9047,3.9109,3.9145,3.9208,3.9247,3.9247,3.9263,3.9261,3.9267,3.9165,3.9145,3.9263,3.9263,3.9263,3.9263,3.9263,3.9263,3.8597,3.8678,3.8692,3.8792,3.8822,3.8892,3.8922,3.8962,3.8998,3.9084,3.9137,3.916,3.9201,3.9267,3.9325,3.9334,3.9357,3.9376,3.9383,3.9287,3.9274,3.9263,3.9244,3.9381,3.9381,3.9481,3.9482,3.9483]}]]